This demonstration page uses our WeatherBlox Daily Observations layout. Learn more.

Left ArrowRight Arrow

44.89941, -97.11507

Hourly Observations for November 4, 2020

Temp ( °F °C ) Dew Point ( °F °C ) Humidity (%) Winds ( mph kmh ) Pressure ( in mb ) Visibility ( mi km ) Precip ( " mm )
12:53 am 00:53 Clear 37 2.8 32 0 82 82 Calm 29.86 1011 10 16 0.00 0.00
1:53 am 01:53 Clear 36 2.2 31 -0.6 82 82 S 3 6 29.87 1011 10 16 0.00 0.00
2:53 am 02:53 Clear 35 1.7 31 -0.6 85 85 Calm 29.87 1011 10 16 0.00 0.00
3:53 am 03:53 Clear 35 1.7 30 -1.1 82 82 SSE 5 7 29.87 1012 10 16 0.00 0.00
4:53 am 04:53 Clear 34 1.1 30 -1.1 85 85 Calm 29.89 1012 10 16 0.00 0.00
5:53 am 05:53 Clear 31 -0.6 28 -2.2 89 89 Calm 29.91 1013 10 16 0.00 0.00
6:53 am 06:53 Clear 34 1.1 30 -1.1 85 85 SSE 5 7 29.92 1013 10 16 0.00 0.00
7:53 am 07:53 Sunny 34 1.1 30 -1.1 85 85 SSE 5 7 29.93 1014 10 16 0.00 0.00
8:53 am 08:53 Sunny 42 5.6 35 1.7 76 76 S 6 9 29.94 1014 10 16 0.00 0.00
9:53 am 09:53 Sunny 53 11.7 39 3.9 59 59 S 5 7 29.93 1014 10 16 0.00 0.00
10:53 am 10:53 Sunny 63 17.2 36 2.2 37 37 SW 8 13 29.93 1013 10 16 0.00 0.00
11:53 am 11:53 Sunny 71 21.7 37 2.8 29 29 SSW 10 17 29.92 1013 10 16 0.00 0.00
12:53 pm 12:53 Sunny 76 24.4 31 -0.6 19 19 SW 12 19 29.90 1013 10 16 0.00 0.00
1:53 pm 13:53 Sunny 77 25 32 0 19 19 SW 13 20 29.89 1012 10 16 0.00 0.00
2:53 pm 14:53 Sunny 77 25 31 -0.6 18 18 WSW 16 26 29.90 1013 10 16 0.00 0.00
3:53 pm 15:53 Sunny 71 21.7 36 2.2 28 28 W 8 13 29.93 1013 10 16 0.00 0.00
4:53 pm 16:53 Sunny 61 16.1 37 2.8 41 41 W 7 11 29.95 1014 10 16 0.00 0.00
5:53 pm 17:53 Clear 62 16.7 36 2.2 38 38 W 9 15 29.98 1015 10 16 0.00 0.00
6:53 pm 18:53 Clear 61 16.1 36 2.2 39 39 W 8 13 29.99 1016 10 16 0.00 0.00
7:53 pm 19:53 Clear 51 10.6 36 2.2 56 56 WNW 8 13 30.02 1017 10 16 0.00 0.00
8:53 pm 20:53 Clear 59 15 37 2.8 44 44 W 9 15 30.02 1017 10 16 0.00 0.00
9:53 pm 21:53 Clear 51 10.6 38 3.3 61 61 NNW 3 6 30.05 1018 10 16 0.00 0.00
10:53 pm 22:53 Clear 50 10 36 2.2 59 59 VRB 3 6 30.05 1018 10 16 0.00 0.00
11:53 pm 23:53 Clear 46 7.8 36 2.2 68 68 Calm 30.06 1018 10 16 0.00 0.00

Powered by AerisWeather